Location: Sobotiste
(48.7170°N, 17.4000°E)
Time: 08:01:57
(UTC+02:00)

YUBILEINY - Pass Details

Date: 15 March 2026
Orbit: 1477 x 1509 km, 82.5° (Epoch: 13 April)

Event Time Altitude Azimuth Distance (km) Brightness Sun altitude
Rises 00:00:38 0° 351° (N) 4,627 ? -43.5°
Reaches altitude 10° 00:07:47 10° 31° (NNE) 3,633 ? -43.5°
Maximum altitude 00:09:03 10° 39° (NE) 3,605 ? -43.5°
Drops below altitude 10° 00:10:18 10° 48° (NE) 3,629 ? -43.5°
Sets 00:17:22 0° 87° (E) 4,598 ? -43.4°
